• In Czech Republic
  • List of Countries
  • For 7 days
  • Water Temperature
  • Satellite Maps
  • Weather Map
  • Weather Widgets
  • user-avatar
    Login

    Hourly Weather Chippenham

    Today, 18 January, Thursday

    Time Temperature Precipitation Wind Pressure Humidity
    00:00 +8°C° 0 mm 11 mps 741 mmHg 87%
    01:00 +8°C° 0.1 mm 12 mps 740 mmHg 84%
    02:00 +8°C° 0.1 mm 13 mps 740 mmHg 81%
    03:00 +8°C° 0.1 mm 14 mps 739 mmHg 78%
    04:00 +7°C° 0 mm 12 mps 740 mmHg 77%
    05:00 +6°C° 0 mm 11 mps 741 mmHg 76%
    06:00 +4°C° 0 mm 8 mps 743 mmHg 76%
    07:00 +4°C° 0 mm 7 mps 744 mmHg 78%
    08:00 +3°C° 0 mm 6 mps 744 mmHg 80%
    09:00 +3°C° 0 mm 5 mps 745 mmHg 82%
    10:00 +4°C° 0 mm 6 mps 745 mmHg 79%
    11:00 +5°C° 0 mm 7 mps 746 mmHg 75%
    12:00 +7°C° 0 mm 6 mps 746 mmHg 72%
    13:00 +5°C° 0.1 mm 6 mps 746 mmHg 73%
    14:00 +5°C° 0.1 mm 7 mps 746 mmHg 73%
    15:00 +5°C° 0.1 mm 7 mps 746 mmHg 73%
    16:00 +4°C° 0.1 mm 6 mps 746 mmHg 75%
    17:00 +3°C° 0.1 mm 6 mps 747 mmHg 77%
    18:00 +2°C° 0.1 mm 6 mps 747 mmHg 79%
    19:00 +2°C° 0 mm 5 mps 748 mmHg 79%
    20:00 +1°C° 0 mm 5 mps 748 mmHg 79%
    21:00 +1°C° 0 mm 5 mps 749 mmHg 78%
    22:00 +1°C° 0 mm 5 mps 749 mmHg 79%
    23:00 0°C° 0 mm 5 mps 749 mmHg 79%

    Tomorrow, 19 January, Friday

    Time Temperature Precipitation Wind Pressure Humidity
    00:00 0°C° 0 mm 5 mps 750 mmHg 79%
    01:00 0°C° 0 mm 4 mps 750 mmHg 80%
    02:00 0°C° 0 mm 4 mps 750 mmHg 81%
    03:00 0°C° 0 mm 4 mps 750 mmHg 81%
    04:00 -1°C° 0 mm 4 mps 750 mmHg 82%
    05:00 -1°C° 0 mm 4 mps 750 mmHg 82%
    06:00 -1°C° 0 mm 4 mps 750 mmHg 82%
    07:00 0°C° 0 mm 4 mps 751 mmHg 81%
    08:00 0°C° 0 mm 4 mps 751 mmHg 80%
    09:00 0°C° 0 mm 5 mps 751 mmHg 79%
    10:00 +1°C° 0 mm 5 mps 751 mmHg 74%
    11:00 +2°C° 0 mm 6 mps 751 mmHg 69%
    12:00 +3°C° 0 mm 7 mps 751 mmHg 64%
    13:00 +3°C° 0.1 mm 7 mps 751 mmHg 65%
    14:00 +3°C° 0.1 mm 6 mps 751 mmHg 66%
    15:00 +3°C° 0.1 mm 6 mps 751 mmHg 67%
    16:00 +2°C° 0 mm 6 mps 751 mmHg 70%
    17:00 +1°C° 0 mm 5 mps 751 mmHg 73%
    18:00 +1°C° 0 mm 5 mps 751 mmHg 76%
    19:00 +1°C° 0 mm 5 mps 751 mmHg 78%
    20:00 0°C° 0 mm 4 mps 751 mmHg 79%
    21:00 0°C° 0 mm 4 mps 752 mmHg 81%
    22:00 0°C° 0 mm 4 mps 751 mmHg 82%
    23:00 0°C° 0 mm 4 mps 751 mmHg 83%

    Day after tomorrow, 20 January, Saturday

    Time Temperature Precipitation Wind Pressure Humidity
    00:00 0°C° 0 mm 4 mps 751 mmHg 84%
    01:00 +2°C° 0.2 mm 3 mps 750 mmHg 86%
    02:00 +2°C° 0.2 mm 3 mps 749 mmHg 88%
    03:00 +3°C° 0.2 mm 2 mps 749 mmHg 90%
    04:00 +3°C° 0.3 mm 2 mps 748 mmHg 92%
    05:00 +3°C° 0.3 mm 2 mps 747 mmHg 93%
    06:00 +3°C° 0.3 mm 2 mps 746 mmHg 94%
    07:00 +3°C° 0.1 mm 2 mps 746 mmHg 94%
    08:00 +3°C° 0.1 mm 2 mps 746 mmHg 94%
    09:00 +5°C° 0.1 mm 1 mps 746 mmHg 94%
    10:00 +4°C° 0.1 mm 2 mps 747 mmHg 93%
    11:00 +4°C° 0.1 mm 2 mps 747 mmHg 91%
    12:00 +5°C° 0.1 mm 2 mps 748 mmHg 90%
    13:00 +5°C° 0.1 mm 2 mps 748 mmHg 89%
    14:00 +6°C° 0.1 mm 1 mps 749 mmHg 88%
    15:00 +6°C° 0.1 mm 1 mps 749 mmHg 87%
    16:00 +5°C° 0 mm 1 mps 750 mmHg 88%
    17:00 +4°C° 0 mm 1 mps 751 mmHg 90%
    18:00 +4°C° 0 mm 1 mps 752 mmHg 91%
    19:00 +3°C° 0 mm 1 mps 752 mmHg 91%
    20:00 +3°C° 0 mm 1 mps 753 mmHg 90%
    21:00 +3°C° 0 mm 1 mps 753 mmHg 90%
    22:00 +4°C° 0.3 mm 1 mps 753 mmHg 90%
    23:00 +3°C° 0.3 mm 2 mps 753 mmHg 90%

    21 January, Sunday

    Time Temperature Precipitation Wind Pressure Humidity
    00:00 +3°C° 0.3 mm 2 mps 753 mmHg 90%
    01:00 +3°C° 1.1 mm 3 mps 753 mmHg 91%
    02:00 +3°C° 1.1 mm 4 mps 752 mmHg 92%
    03:00 +2°C° 1.1 mm 5 mps 752 mmHg 93%
    04:00 +3°C° 1 mm 5 mps 751 mmHg 94%
    05:00 +5°C° 1 mm 5 mps 751 mmHg 95%
    06:00 +6°C° 1 mm 5 mps 750 mmHg 97%
    07:00 +7°C° 1.1 mm 6 mps 750 mmHg 96%
    08:00 +8°C° 1.1 mm 6 mps 750 mmHg 94%
    09:00 +10°C° 1.1 mm 7 mps 750 mmHg 93%
    10:00 +10°C° 0.2 mm 8 mps 750 mmHg 92%
    11:00 +11°C° 0.2 mm 8 mps 750 mmHg 91%
    12:00 +11°C° 0.2 mm 9 mps 750 mmHg 89%
    13:00 +11°C° 0.1 mm 8 mps 750 mmHg 90%
    14:00 +11°C° 0.1 mm 8 mps 750 mmHg 90%
    15:00 +11°C° 0.1 mm 8 mps 750 mmHg 91%
    16:00 +11°C° 0.3 mm 7 mps 750 mmHg 91%
    17:00 +11°C° 0.3 mm 7 mps 751 mmHg 92%
    18:00 +11°C° 0.3 mm 7 mps 751 mmHg 92%
    19:00 +11°C° 0.2 mm 6 mps 751 mmHg 93%
    20:00 +11°C° 0.2 mm 6 mps 751 mmHg 93%
    21:00 +11°C° 0.2 mm 6 mps 752 mmHg 94%
    22:00 +11°C° 0.2 mm 6 mps 752 mmHg 94%
    23:00 +10°C° 0.2 mm 6 mps 752 mmHg 94%

    22 January, Monday

    Time Temperature Precipitation Wind Pressure Humidity
    00:00 +10°C° 0.2 mm 5 mps 752 mmHg 95%
    01:00 +12°C° 0.2 mm 5 mps 752 mmHg 95%
    02:00 +12°C° 0.2 mm 5 mps 752 mmHg 95%
    03:00 +12°C° 0.2 mm 5 mps 751 mmHg 94%
    04:00 +11°C° 0.1 mm 6 mps 751 mmHg 93%
    05:00 +11°C° 0.1 mm 7 mps 751 mmHg 92%
    06:00 +11°C° 0.1 mm 8 mps 751 mmHg 91%
    07:00 +11°C° 0.3 mm 8 mps 750 mmHg 90%
    08:00 +11°C° 0.3 mm 9 mps 750 mmHg 90%
    09:00 +11°C° 0.3 mm 9 mps 750 mmHg 90%
    10:00 +11°C° 0.1 mm 10 mps 749 mmHg 86%
    11:00 +11°C° 0.1 mm 11 mps 749 mmHg 83%
    12:00 +11°C° 0.1 mm 11 mps 749 mmHg 79%
    13:00 +11°C° 0 mm 11 mps 750 mmHg 78%
    14:00 +9°C° 0 mm 10 mps 750 mmHg 78%
    15:00 +10°C° 0 mm 9 mps 751 mmHg 77%
    16:00 +9°C° 0 mm 8 mps 751 mmHg 80%
    17:00 +8°C° 0 mm 6 mps 752 mmHg 84%
    18:00 +7°C° 0 mm 5 mps 752 mmHg 87%
    19:00 +8°C° 0 mm 5 mps 753 mmHg 88%
    20:00 +8°C° 0 mm 5 mps 753 mmHg 89%
    21:00 +9°C° 0 mm 6 mps 753 mmHg 90%
    22:00 +9°C° 0 mm 6 mps 753 mmHg 89%
    23:00 +9°C° 0 mm 7 mps 753 mmHg 89%

    23 January, Tuesday

    Time Temperature Precipitation Wind Pressure Humidity
    00:00 +9°C° 0 mm 8 mps 754 mmHg 88%
    01:00 +9°C° 0.1 mm 8 mps 754 mmHg 87%
    02:00 +9°C° 0.1 mm 7 mps 754 mmHg 87%
    03:00 +10°C° 0.1 mm 7 mps 755 mmHg 86%
    04:00 +9°C° 0 mm 6 mps 755 mmHg 87%
    05:00 +8°C° 0 mm 5 mps 756 mmHg 88%
    06:00 +7°C° 0 mm 5 mps 757 mmHg 88%
    07:00 +7°C° 0 mm 5 mps 757 mmHg 90%
    08:00 +7°C° 0 mm 4 mps 757 mmHg 91%
    09:00 +7°C° 0 mm 4 mps 758 mmHg 92%
    10:00 +8°C° 0 mm 5 mps 758 mmHg 91%
    11:00 +9°C° 0 mm 5 mps 759 mmHg 90%
    12:00 +10°C° 0 mm 5 mps 759 mmHg 89%
    13:00 +10°C° 0 mm 5 mps 759 mmHg 89%
    14:00 +11°C° 0 mm 6 mps 758 mmHg 89%
    15:00 +11°C° 0 mm 6 mps 758 mmHg 89%
    16:00 +10°C° 0 mm 6 mps 758 mmHg 89%
    17:00 +10°C° 0 mm 6 mps 758 mmHg 90%
    18:00 +9°C° 0 mm 6 mps 758 mmHg 90%
    19:00 +10°C° 0.1 mm 7 mps 758 mmHg 90%
    20:00 +10°C° 0.1 mm 7 mps 757 mmHg 91%
    21:00 +11°C° 0.1 mm 7 mps 757 mmHg 92%
    22:00 +11°C° 0.4 mm 7 mps 757 mmHg 92%
    23:00 +11°C° 0.4 mm 8 mps 757 mmHg 92%
    Show more